• In Belarus
  • List of Countries
  • For 7 days
  • Water Temperature
  • Satellite Maps
  • Weather Map
  • Weather Widgets
  • user-avatar
    Login

    Hourly Weather Chas

    Today, 24 April, Wednesday

    Time Temperature Precipitation Wind Pressure Humidity
    00:00 +33°C° 0 mm 4 mps 738 mmHg 50%
    01:00 +31°C° 0 mm 3 mps 738 mmHg 53%
    02:00 +31°C° 0 mm 3 mps 738 mmHg 57%
    03:00 +30°C° 0 mm 2 mps 737 mmHg 61%
    04:00 +30°C° 0 mm 2 mps 738 mmHg 62%
    05:00 +29°C° 0 mm 2 mps 738 mmHg 63%
    06:00 +29°C° 0 mm 2 mps 738 mmHg 65%
    07:00 +31°C° 0 mm 3 mps 738 mmHg 56%
    08:00 +34°C° 0 mm 3 mps 738 mmHg 48%
    09:00 +36°C° 0 mm 4 mps 739 mmHg 40%
    10:00 +37°C° 0 mm 4 mps 738 mmHg 34%
    11:00 +40°C° 0 mm 4 mps 738 mmHg 29%
    12:00 +42°C° 0 mm 4 mps 738 mmHg 23%
    13:00 +42°C° 0 mm 4 mps 737 mmHg 21%
    14:00 +43°C° 0 mm 3 mps 736 mmHg 19%
    15:00 +43°C° 0 mm 3 mps 736 mmHg 17%
    16:00 +42°C° 0 mm 2 mps 735 mmHg 17%
    17:00 +42°C° 0 mm 2 mps 735 mmHg 17%
    18:00 +41°C° 0 mm 1 mps 735 mmHg 17%
    19:00 +40°C° 0 mm 3 mps 736 mmHg 24%
    20:00 +38°C° 0 mm 4 mps 736 mmHg 30%
    21:00 +38°C° 0 mm 6 mps 737 mmHg 36%
    22:00 +36°C° 0 mm 5 mps 737 mmHg 43%
    23:00 +34°C° 0 mm 5 mps 737 mmHg 50%

    Tomorrow, 25 April, Thursday

    Time Temperature Precipitation Wind Pressure Humidity
    00:00 +33°C° 0 mm 4 mps 737 mmHg 57%
    01:00 +33°C° 0 mm 4 mps 737 mmHg 58%
    02:00 +31°C° 0 mm 3 mps 736 mmHg 59%
    03:00 +31°C° 0 mm 3 mps 736 mmHg 60%
    04:00 +30°C° 0 mm 2 mps 736 mmHg 61%
    05:00 +30°C° 0 mm 2 mps 736 mmHg 62%
    06:00 +30°C° 0 mm 2 mps 736 mmHg 64%
    07:00 +31°C° 0 mm 2 mps 737 mmHg 56%
    08:00 +34°C° 0 mm 2 mps 737 mmHg 49%
    09:00 +36°C° 0 mm 3 mps 738 mmHg 42%
    10:00 +38°C° 0 mm 2 mps 738 mmHg 35%
    11:00 +40°C° 0 mm 1 mps 738 mmHg 29%
    12:00 +42°C° 0 mm 1 mps 738 mmHg 23%
    13:00 +42°C° 0 mm 1 mps 737 mmHg 21%
    14:00 +43°C° 0 mm 2 mps 736 mmHg 19%
    15:00 +43°C° 0 mm 2 mps 735 mmHg 17%
    16:00 +43°C° 0 mm 2 mps 735 mmHg 17%
    17:00 +42°C° 0 mm 2 mps 735 mmHg 17%
    18:00 +43°C° 0 mm 3 mps 735 mmHg 17%
    19:00 +42°C° 0 mm 3 mps 735 mmHg 19%
    20:00 +40°C° 0 mm 2 mps 736 mmHg 21%
    21:00 +39°C° 0 mm 2 mps 737 mmHg 23%
    22:00 +38°C° 0 mm 3 mps 736 mmHg 33%
    23:00 +36°C° 0 mm 3 mps 736 mmHg 43%

    Day after tomorrow, 26 April, Friday

    Time Temperature Precipitation Wind Pressure Humidity
    00:00 +35°C° 0 mm 4 mps 736 mmHg 54%
    01:00 +34°C° 0 mm 3 mps 736 mmHg 56%
    02:00 +33°C° 0 mm 3 mps 735 mmHg 59%
    03:00 +32°C° 0 mm 2 mps 735 mmHg 62%
    04:00 +31°C° 0 mm 2 mps 735 mmHg 63%
    05:00 +31°C° 0 mm 2 mps 735 mmHg 64%
    06:00 +31°C° 0 mm 1 mps 735 mmHg 65%
    07:00 +34°C° 0 mm 2 mps 735 mmHg 54%
    08:00 +36°C° 0 mm 2 mps 736 mmHg 44%
    09:00 +38°C° 0 mm 3 mps 737 mmHg 34%
    10:00 +40°C° 0 mm 3 mps 736 mmHg 29%
    11:00 +42°C° 0 mm 2 mps 736 mmHg 24%
    12:00 +45°C° 0 mm 2 mps 736 mmHg 18%
    13:00 +45°C° 0 mm 2 mps 735 mmHg 17%
    14:00 +45°C° 0 mm 2 mps 734 mmHg 16%
    15:00 +44°C° 0 mm 1 mps 733 mmHg 15%
    16:00 +45°C° 0 mm 2 mps 733 mmHg 15%
    17:00 +45°C° 0 mm 2 mps 733 mmHg 15%
    18:00 +43°C° 0 mm 2 mps 733 mmHg 15%
    19:00 +42°C° 0 mm 2 mps 734 mmHg 18%
    20:00 +42°C° 0 mm 3 mps 734 mmHg 20%
    21:00 +39°C° 0 mm 3 mps 735 mmHg 23%
    22:00 +38°C° 0 mm 4 mps 735 mmHg 34%
    23:00 +36°C° 0 mm 4 mps 735 mmHg 45%

    27 April, Saturday

    Time Temperature Precipitation Wind Pressure Humidity
    00:00 +35°C° 0 mm 5 mps 735 mmHg 56%
    01:00 +34°C° 0 mm 4 mps 735 mmHg 59%
    02:00 +34°C° 0 mm 4 mps 734 mmHg 62%
    03:00 +33°C° 0 mm 3 mps 734 mmHg 65%
    04:00 +33°C° 0 mm 3 mps 734 mmHg 66%
    05:00 +31°C° 0 mm 3 mps 734 mmHg 66%
    06:00 +31°C° 0 mm 2 mps 735 mmHg 67%
    07:00 +34°C° 0 mm 3 mps 735 mmHg 58%
    08:00 +36°C° 0 mm 3 mps 736 mmHg 50%
    09:00 +38°C° 0 mm 4 mps 736 mmHg 41%
    10:00 +41°C° 0 mm 4 mps 736 mmHg 34%
    11:00 +43°C° 0 mm 3 mps 735 mmHg 28%
    12:00 +45°C° 0 mm 3 mps 735 mmHg 22%
    13:00 +45°C° 0 mm 2 mps 734 mmHg 19%
    14:00 +46°C° 0 mm 2 mps 733 mmHg 17%
    15:00 +45°C° 0 mm 1 mps 732 mmHg 14%
    16:00 +45°C° 0 mm 1 mps 732 mmHg 14%
    17:00 +46°C° 0 mm 2 mps 732 mmHg 13%
    18:00 +46°C° 0 mm 2 mps 732 mmHg 13%
    19:00 +44°C° 0 mm 3 mps 733 mmHg 18%
    20:00 +42°C° 0 mm 3 mps 733 mmHg 23%
    21:00 +41°C° 0 mm 4 mps 734 mmHg 28%
    22:00 +40°C° 0 mm 4 mps 734 mmHg 36%
    23:00 +37°C° 0 mm 5 mps 734 mmHg 44%

    28 April, Sunday

    Time Temperature Precipitation Wind Pressure Humidity
    00:00 +36°C° 0 mm 5 mps 734 mmHg 51%
    01:00 +36°C° 0 mm 4 mps 734 mmHg 52%
    02:00 +35°C° 0 mm 4 mps 734 mmHg 53%
    03:00 +35°C° 0 mm 4 mps 733 mmHg 54%
    04:00 +34°C° 0 mm 4 mps 733 mmHg 55%
    05:00 +33°C° 0 mm 4 mps 734 mmHg 56%
    06:00 +33°C° 0 mm 4 mps 734 mmHg 58%
    07:00 +35°C° 0 mm 4 mps 734 mmHg 49%
    08:00 +37°C° 0 mm 4 mps 735 mmHg 40%
    09:00 +40°C° 0 mm 4 mps 736 mmHg 31%
    10:00 +43°C° 0 mm 4 mps 735 mmHg 22%
    11:00 +47°C° 0 mm 5 mps 735 mmHg 13%
    12:00 +49°C° 0 mm 5 mps 735 mmHg 5%
    13:00 +51°C° 0 mm 6 mps 734 mmHg 5%
    14:00 +51°C° 0 mm 6 mps 733 mmHg 6%
    15:00 +51°C° 0 mm 6 mps 732 mmHg 6%
    16:00 +49°C° 0 mm 5 mps 732 mmHg 7%
    17:00 +49°C° 0 mm 4 mps 732 mmHg 8%
    18:00 +47°C° 0 mm 3 mps 732 mmHg 8%
    19:00 +45°C° 0 mm 3 mps 732 mmHg 10%
    20:00 +43°C° 0 mm 2 mps 733 mmHg 11%
    21:00 +41°C° 0 mm 1 mps 733 mmHg 12%
    22:00 +40°C° 0 mm 2 mps 734 mmHg 15%
    23:00 +39°C° 0 mm 3 mps 734 mmHg 18%

    29 April, Monday

    Time Temperature Precipitation Wind Pressure Humidity
    00:00 +38°C° 0 mm 4 mps 734 mmHg 20%
    01:00 +37°C° 0 mm 4 mps 733 mmHg 27%
    02:00 +36°C° 0 mm 4 mps 733 mmHg 33%
    03:00 +35°C° 0 mm 4 mps 733 mmHg 39%
    04:00 +35°C° 0 mm 4 mps 733 mmHg 44%
    05:00 +34°C° 0 mm 4 mps 734 mmHg 49%
    06:00 +33°C° 0 mm 4 mps 734 mmHg 55%
    07:00 +35°C° 0 mm 5 mps 735 mmHg 49%
    08:00 +38°C° 0 mm 6 mps 735 mmHg 44%
    09:00 +40°C° 0 mm 6 mps 736 mmHg 39%
    10:00 +42°C° 0 mm 6 mps 736 mmHg 31%
    11:00 +46°C° 0 mm 5 mps 735 mmHg 23%
    12:00 +48°C° 0 mm 5 mps 735 mmHg 15%
    13:00 +49°C° 0 mm 4 mps 734 mmHg 13%
    14:00 +49°C° 0 mm 4 mps 733 mmHg 11%
    15:00 +48°C° 0 mm 3 mps 732 mmHg 10%
    16:00 +48°C° 0 mm 3 mps 732 mmHg 9%
    17:00 +48°C° 0 mm 2 mps 732 mmHg 9%
    18:00 +48°C° 0 mm 2 mps 732 mmHg 9%
    19:00 +46°C° 0 mm 2 mps 733 mmHg 10%
    20:00 +43°C° 0 mm 1 mps 733 mmHg 11%
    21:00 +41°C° 0 mm 1 mps 734 mmHg 11%
    22:00 +40°C° 0 mm 3 mps 734 mmHg 19%
    23:00 +40°C° 0 mm 5 mps 734 mmHg 27%
    Show more